This is the latest recevied weather packets stored in our database for station/object DM1HF-13. If no packets are shown the sender has not sent any weather packets the latest 10 day(s).
| Time | Temp. | Humidity | Pressure | Rain* | Wind** | Luminosity | Snow |
|---|---|---|---|---|---|---|---|
| 1777830916 | 22.78° C | 40% | 1012.3 hPa | 0 mm | - | 11 W/m² | - |
| 1777830617 | 23.33° C | 40% | 1012.3 hPa | 0 mm | - | 13 W/m² | - |
| 1777830316 | 23.33° C | 40% | 1012.3 hPa | 0 mm | - | 15 W/m² | - |
| 1777830016 | 23.33° C | 39% | 1012.3 hPa | 0 mm | - | 17 W/m² | - |
| 1777829716 | 23.89° C | 39% | 1012.2 hPa | 0 mm | - | 20 W/m² | - |
| 1777829416 | 23.89° C | 38% | 1012.2 hPa | 0 mm | - | 25 W/m² | - |
| 1777829116 | 24.44° C | 38% | 1012.2 hPa | 0 mm | - | 29 W/m² | - |
| 1777828816 | 24.44° C | 37% | 1012.1 hPa | 0 mm | - | 30 W/m² | - |
| 1777828517 | 24.44° C | 36% | 1012.1 hPa | 0 mm | - | 35 W/m² | - |
| 1777828216 | 24.44° C | 35% | 1012.1 hPa | 0 mm | - | 39 W/m² | - |
| 1777827916 | 25° C | 34% | 1012.1 hPa | 0 mm | - | 44 W/m² | - |
| 1777827616 | 25° C | 34% | 1012.1 hPa | 0 mm | - | 49 W/m² | - |
| 1777827316 | 25° C | 34% | 1012.1 hPa | 0 mm | - | 40 W/m² | - |
| 1777827017 | 25° C | 33% | 1012.1 hPa | 0 mm | - | 54 W/m² | - |
| 1777826716 | 25° C | 33% | 1012.1 hPa | 0 mm | - | 61 W/m² | - |
| 1777826416 | 25.56° C | 34% | 1012.1 hPa | 0 mm | - | 53 W/m² | - |
| 1777826116 | 25.56° C | 32% | 1012.1 hPa | 0 mm | - | 48 W/m² | - |
| 1777825816 | 25.56° C | 33% | 1012.1 hPa | 0 mm | - | 45 W/m² | - |
| 1777825516 | 26.11° C | 33% | 1012 hPa | 0 mm | - | 47 W/m² | - |
| 1777825216 | 26.67° C | 32% | 1011.9 hPa | 0 mm | - | 48 W/m² | - |
| 1777824916 | 27.78° C | 30% | 1011.8 hPa | 0 mm | - | 53 W/m² | - |
| 1777824616 | 28.33° C | 25% | 1011.9 hPa | 0 mm | - | 63 W/m² | - |
| 1777824316 | 28.33° C | 23% | 1011.8 hPa | 0 mm | - | 77 W/m² | - |
| 1777824016 | 28.33° C | 24% | 1011.8 hPa | 0 mm | - | 89 W/m² | - |
| 1777823716 | 28.89° C | 25% | 1011.8 hPa | 0 mm | - | 97 W/m² | - |
* Rain latest hour (hover to see other rain measurements)
** Current wind speed in m/s (hover to see current wind gust speed)